Weather in Monino

Russia / Pskov Oblast     56°37′47″N   29°34′37″E
temp.,
°C
wind,
m/s
gust,
m/s
humid.,
%
clouds,
%
prec.,
mm/h
press.,
hPa
HPBL,
m
10 may, mon
mon1000:00+3s257755 0.0 102369
03:00+3s3117784 0.0 1024232
06:00+5s41270100 0.0 1024309
09:00+9s5116288 0.0 1024447
12:00+15s57497 0.0 1024964
15:00+17ssw564888 0.0 10241243
18:00+17s3557100 0.0 10231209
21:00+11sse3108657 0.0 1025229
11 may, tue
tue1100:00+8s3109094 0.0 1026201
03:00+7s3109055 0.0 1027180
06:00+7sse31080100 0.0 1026217
09:00+13s37565 0.0 1027437
12:00+17sse45438 0.0 1026965
15:00+19se45405 0.0 10251099
18:00+18se36505 0.0 1024923
21:00+11ese35705 0.0 102476
12 may, wed
wed1200:00+8se310797 0.0 1025175
03:00+8se398699 0.0 1024168
06:00+9se389111 0.0 1024163
09:00+15se46765 0.0 1024541
12:00+18se57551 0.0 10231161
15:00+19ese46420 0.0 10221390
18:00+19e26525 0.0 10191256
21:00+14nne3118177 0.0 1016305
13 may, thu
thu1300:00+13ene5129628 1.4 1014933
03:00+7ese6149278 1.8 1016936
06:00+8ese51384100 0.0 10151143
09:00+9ese61380100 0.0 1015881
12:00+9ese61184100 0.1 10141151
15:00+10se5107855 0.3 10131037
18:00+11sse497980 0.4 10131147
21:00+10ese41286100 0.5 1013676
14 may, fri
fri1400:00+8se41390100 0.0 1013507
03:00+9se5148433 0.0 1012548
06:00+9se513858 0.0 1012458
09:00+14se510675 0.0 1011666
12:00+15sse496264 0.0 10111221
15:00+17se366149 0.0 1011872
18:00+18se366295 0.0 10091057
21:00+12ese27938 0.1 1009141